Wichita, KS

7:46 AM CST on February 07, 2016 (GMT -0600)
Col Jabara

Weather History for KAAO - July, 2013

Change the Weather History Date:

Monday, July 8, 2013

  Actual Average (KICT) Record (KICT)
Temperature  
Mean Temperature 86 °F 81 °F  
Max Temperature 99 °F 92 °F 108 °F (1980)
Min Temperature 73 °F 70 °F 55 °F (1952)
Degree Days  
Heating Degree Days 0 0  
Month to date heating degree days 0  
Since 1 June heating degree days 6  
Since 1 July heating degree days 0  
Cooling Degree Days 20 16  
Month to date cooling degree days 123  
Year to date cooling degree days 588  
Since 1 June cooling degree days 452  
Growing Degree Days 36 (Base 50)    
Moisture  
Dew Point 65 °F    
Average Humidity 51    
Maximum Humidity 76    
Minimum Humidity 31    
Precipitation  
Precipitation 0.00 in 0.12 in 3.08 in (1944)
Month to date precipitation 0.99  
Year to date precipitation 18.05  
Snow  
Snow 0.00 in 0.00 in 0.00 in (2007)
Month to date snowfall 0.0  
Since 1 June snowfall 0.0  
Since 1 July snowfall 0.0  
Snow Depth -    
Sea Level Pressure  
Sea Level Pressure 29.96 in    
Wind  
Wind Speed 12 mph (South)    
Max Wind Speed 16 mph    
Max Gust Speed 24 mph    
Visibility 10 miles    
Events      
T = Trace of Precipitation, MM = Missing Value Source: NWS Daily Summary

Daily Weather History Graph

Daily Weather History Graph

Search for Another Location

Airport or City:

Trip Planner

Search our weather history database for the weather conditions in past years. The results will help you decide how hot, cold, wet, or windy it might be!

Date:

Astronomy

Jul. 08, 2013 Rise Set
Actual Time 6:14 AM CDT 8:53 PM CDT
Civil Twilight 5:43 AM CDT 9:23 PM CDT
Nautical Twilight 5:05 AM CDT 10:02 PM CDT
Astronomical Twilight 4:22 AM CDT 10:45 PM CDT
Moon 6:43 AM CDT (7/8) 8:58 PM CDT (7/8)
Length of Visible Light 15h 40m
Length of Day
14h 38m
New Moon, 0% of the Moon is Illuminated
Jul 8
New Moon
Jul 15
First Quarter
Jul 22
Full
Jul 29
Last Quarter
Aug 6
New

Hourly Weather History & Observations

Time (CDT) Temp. Heat Index Dew Point Humidity Pressure Visibility Wind Dir Wind Speed Gust Speed Precip Events Conditions
12:54 AM 80.1 °F 81.9 °F 64.9 °F 60% 29.95 in 10.0 mi South 13.8 mph - N/A   Clear
1:54 AM 80.1 °F 81.7 °F 64.0 °F 58% 29.95 in 10.0 mi South 12.7 mph - N/A   Clear
2:54 AM 79.0 °F - 64.0 °F 60% 29.95 in 10.0 mi South 13.8 mph - N/A   Clear
3:54 AM 79.0 °F - 64.0 °F 60% 29.96 in 10.0 mi South 10.4 mph - N/A   Clear
4:54 AM 77.0 °F - 64.0 °F 64% 29.98 in 10.0 mi SSE 4.6 mph - N/A   Clear
5:54 AM 75.0 °F - 64.9 °F 71% 30.01 in 10.0 mi ESE 4.6 mph - N/A   Clear
6:54 AM 73.9 °F - 66.0 °F 76% 29.99 in 10.0 mi SSE 8.1 mph - N/A   Clear
7:54 AM 77.0 °F - 64.9 °F 66% 30.00 in 10.0 mi South 11.5 mph - N/A   Clear
8:54 AM 81.0 °F 83.3 °F 66.9 °F 62% 30.01 in 10.0 mi SSW 16.1 mph - N/A   Clear
9:54 AM 82.9 °F 85.4 °F 66.9 °F 58% 30.02 in 10.0 mi SSW 9.2 mph - N/A   Clear
10:54 AM 89.1 °F 92.9 °F 68.0 °F 50% 30.01 in 10.0 mi SSW 11.5 mph - N/A   Clear
11:54 AM 91.9 °F 95.9 °F 68.0 °F 45% 29.99 in 10.0 mi SSW 15.0 mph - N/A   Clear
12:54 PM 93.9 °F 97.5 °F 66.9 °F 41% 29.98 in 10.0 mi SSW 11.5 mph 19.6 mph N/A   Clear
1:54 PM 96.1 °F 99.3 °F 66.0 °F 37% 29.95 in 10.0 mi South 13.8 mph 18.4 mph N/A   Clear
2:54 PM 97.0 °F 99.3 °F 64.0 °F 34% 29.94 in 10.0 mi South 15.0 mph 24.2 mph N/A   Clear
3:54 PM 98.1 °F 99.6 °F 63.0 °F 31% 29.92 in 10.0 mi South 15.0 mph 21.9 mph N/A   Clear
4:54 PM 98.1 °F 100.7 °F 64.0 °F 33% 29.92 in 10.0 mi South 15.0 mph 20.7 mph N/A   Clear
5:54 PM 96.1 °F 98.8 °F 64.9 °F 36% 29.91 in 10.0 mi SSE 12.7 mph 24.2 mph N/A   Clear
6:54 PM 93.9 °F 97.0 °F 66.0 °F 40% 29.91 in 10.0 mi South 16.1 mph - N/A   Clear
7:54 PM 91.9 °F 94.1 °F 64.9 °F 41% 29.92 in 10.0 mi SSE 16.1 mph 21.9 mph N/A   Clear
8:54 PM 89.1 °F 90.3 °F 64.0 °F 43% 29.93 in 10.0 mi SSE 12.7 mph - N/A   Clear
9:54 PM 86.0 °F 88.2 °F 66.0 °F 51% 29.94 in 10.0 mi SSE 11.5 mph - N/A   Clear
10:54 PM 84.0 °F 86.5 °F 66.9 °F 56% 29.96 in 10.0 mi SSE 9.2 mph - N/A   Clear
11:54 PM 82.0 °F 84.9 °F 68.0 °F 62% 29.96 in 10.0 mi South 10.4 mph - N/A   Clear